OpenBCM V1.13 (Linux)

Packet Radio Mailbox

DB0FHN

[JN59NK Nuernberg]

 Login: GUEST





  
I0OJJ  > KEPS     10.01.25 11:02l 328 Lines 15576 Bytes #999 (0) @ AMSAT
BID : ORB25010.1
Read: DJ6UX GUEST
Subj: 2Line Orbital Elements 25010.AMSAT
Path: DB0FHN<OE2XZR<OE6XPE<DB0ERF<IZ3LSV<I0OJJ
Sent: 250110/0855z @:I0OJJ.ITA.EU [Rome] obcm1.08-6-g5b69
From: I0OJJ @ I0OJJ.ITA.EU (Gustavo)
To:   KEPS @ AMSAT
X-Info: This message was generated automatically


QST de W1STR

AMSAT Orbital Elements for Amateur Satellites in TLE Format
From Orbital Analysis Office
New England Sci-Tech STEM Education Center
Natick, MA January 10, 2025
To all radio amateurs


These element sets describe the orbits of various satellites 
in use by the amateur radio community. For details see:
www.amsat.org/keplerian-elements-formats/

A daily update of element sets is available at:
www.amsat.org/tle/daily-bulletin.txt
or without bulletin text:
www.amsat.org/tle/dailytle.txt


AO-07
1 07530U 74089B   25009.25706340 -.00000007  00000-0  24854-3 0  9990
2 07530 101.9911  11.9254 0012379  51.6056 319.5691 12.53684837295104
UO-11
1 14781U 84021B   25009.19551854  .00002860  00000-0  31378-3 0  9991
2 14781  97.7338 338.8493 0009377 112.1823 248.0389 14.88447150179117
AO-27
1 22825U 93061C   25009.16280480  .00000239  00000-0  10851-3 0  9995
2 22825  98.7612  69.8047 0008226 189.4855 170.6173 14.30703712632066
FO-29
1 24278U 96046B   25009.25781768  .00000063  00000-0  10040-3 0  9995
2 24278  98.5890 282.9529 0350273  14.7053 346.3970 13.53230720402308
NOAA-15
1 25338U 98030A   25009.35018965  .00000314  00000-0  14708-3 0  9995
2 25338  98.5511  38.0111 0011331  83.0582 277.1887 14.26852020386839
GO-32
1 25397U 98043D   25009.79396605  .00000213  00000-0  11240-3 0  9998
2 25397  98.9515 345.9288 0000419 327.3454  32.7698 14.24231332377047
ISS
1 25544U 98067A   25009.53881878  .00016426  00000-0  28553-3 0  9999
2 25544  51.6409  12.9201 0006616  61.2192  84.6955 15.50929871490559
NO-44
1 26931U 01043C   25009.12044475  .00000490  00000-0  21500-3 0  9996
2 26931  67.0501 159.3976 0006344 261.1035  98.9349 14.31575605215420
SO-50
1 27607U 02058C   25009.25122271  .00002831  00000-0  38077-3 0  9997
2 27607  64.5555 307.3472 0037989  14.2267 345.9898 14.80724359187025
CO-55
1 27844U 03031E   25008.96708290  .00000725  00000-0  33619-3 0  9997
2 27844  98.6778  19.2043 0008621 267.7573  92.2618 14.23756152117064
CO-57
1 27848U 03031J   25008.98691168  .00000599  00000-0  28467-3 0  9992
2 27848  98.6806  19.3401 0008554 286.3708  73.6530 14.23125997116805
RS-22
1 27939U 03042A   25009.36228103  .00002242  00000-0  36889-3 0  9997
2 27939  98.3089 175.3748 0012469 125.5699 322.7785 14.71556461138582
NOAA-18
1 28654U 05018A   25009.28748662  .00000346  00000-0  20741-3 0  9998
2 28654  98.8577  90.3983 0014084 195.2518 164.8232 14.13481707 12376
CO-58
1 28895U 05043F   25009.32397719  .00002932  00000-0  49788-3 0  9996
2 28895  98.2249 152.1188 0015922  67.7653 292.5240 14.69880740 24712
CO-65
1 32785U 08021C   25009.35627987  .00007136  00000-0  55577-3 0  9998
2 32785  97.7687 339.9019 0010459  25.9856 334.1891 15.01488936906435
AAUSAT2
1 32788U 08021F   25008.93223038  .00064267  00000-0  15390-2 0  9999
2 32788  97.6047 358.9454 0005802 121.4079 238.7735 15.41195002909720
CO-66
1 32791U 08021J   25008.87292384  .00016078  00000-0  92702-3 0  9996
2 32791  97.7133 346.3635 0004178 359.6347   0.4880 15.12455480907518
RS-30
1 32953U 08025A   25009.82514129  .00000038  00000-0  20499-3 0  9993
2 32953  82.5054 320.9558 0020145  17.1373 343.0383 12.43156971754801
NOAA-19
1 33591U 09005A   25009.26949483  .00000306  00000-0  18762-3 0  9992
2 33591  99.0208  72.9874 0014604  72.8320 287.4449 14.13255235820734
SRMSAT
1 37841U 11058D   25009.29418389  .00000589  00000-0  17665-3 0  9998
2 37841  19.9736 349.9802 0011745 199.9634 188.9448 14.11333621683716
ZACUBE-1
1 39417U 13066B   25009.83253723  .00007041  00000-0  65362-3 0  9996
2 39417  97.7610 328.1186 0045821 192.6954 167.3115 14.93914596602385
Delfi-N3xt
1 39428U 13066N   25009.25612488  .00008293  00000-0  91774-3 0  9997
2 39428  97.8378 288.9896 0091665 136.6333 224.2142 14.84543957596593
GOMX-1
1 39430U 13066Q   25009.35170397  .00003865  00000-0  61863-3 0  9995
2 39430  97.7027 237.2054 0134318 316.5639  42.5044 14.66445774593238
LO-74
1 39440U 13066AA  25009.26057666  .00008056  00000-0  86078-3 0  9991
2 39440  97.8342 315.2732 0063885 320.1425  39.5108 14.87536589598920
AO-73
1 39444U 13066AE  25009.83631430  .00009547  00000-0  79110-3 0  9990
2 39444  97.7455 331.9838 0043315 167.9943 192.2322 14.98314946601572
DTUSAT-2
1 40030U 14033W   25008.85417616  .00010413  00000-0  74878-3 0  9997
2 40030  98.0354 333.9430 0008969 205.2921 154.7865 15.04417411573555
EO-80
1 40032U 14033Y   25009.34830316  .00009155  00000-0  65738-3 0  9996
2 40032  98.0267 334.3147 0010405 139.2583 220.9422 15.04501141574121
XW-2C
1 40906U 15049H   25009.80770830  .00219206  00000-0  11053-2 0  9999
2 40906  97.4490  41.9979 0001384 241.8947 118.2181 15.81038175516603
LILACSAT-2
1 40908U 15049K   25009.83739110  .00013878  00000-0  42807-3 0  9999
2 40908  97.5180  27.0134 0010162 350.9851   9.1207 15.33653131515080
IO-86
1 40931U 15052B   24337.09180034  .00002217  00000-0  20975-3 0  9992
2 40931   5.9986 232.5457 0013173 302.5393  57.3463 14.78392648496340
Horyu-4
1 41340U 16012D   25009.35747912  .00021051  00000-0  75601-3 0  9997
2 41340  30.9989  61.8584 0006529 277.4437  82.5464 15.27446451489571
Lapan A3
1 41603U 16040E   25009.32653866  .00004995  00000-0  18470-3 0  9990
2 41603  97.1390  20.0416 0013421  88.9415 271.3362 15.28054884474671
CAS-2T
1 41847U 16066G   25009.32762008  .00002177  00000-0  32297-3 0  9990
2 41847  98.4391  85.0635 0347804 275.7967  80.3678 14.42681894429202
CAS-4B
1 42759U 17034B   25009.33303721  .00037498  00000-0  80393-3 0  9997
2 42759  43.0118 129.5539 0016274 314.4322  45.5204 15.43952488419080
CAS-4A
1 42761U 17034D   25009.37269004  .00038312  00000-0  81069-3 0  9996
2 42761  43.0156 127.3915 0017155 321.6545  38.3093 15.44314741419109
TechnoSat
1 42829U 17042E   25009.23858581  .00005785  00000-0  47018-3 0  9993
2 42829  97.3910 185.3175 0014580  92.0406 268.2488 14.99867553408024
AO-91
1 43017U 17073E   25009.18229110  .00014504  00000-0  79625-3 0  9999
2 43017  97.5479 243.9473 0187286 321.9327  36.8784 15.00412363386478
S-Net D
1 43186U 18014G   25009.27036020  .00007861  00000-0  49913-3 0  9993
2 43186  97.5760 273.8803 0010798  32.4139 327.7751 15.09092258379536
S-Net B
1 43187U 18014H   25009.27406390  .00007977  00000-0  50662-3 0  9996
2 43187  97.5769 273.8474 0011405  27.3720 332.8107 15.09076794379534
S-Net A
1 43188U 18014J   25009.27120715  .00007863  00000-0  49918-3 0  9997
2 43188  97.5772 273.9765 0011295  28.5085 331.6759 15.09095994379530
S-Net C
1 43189U 18014K   25009.27615390  .00008016  00000-0  50889-3 0  9996
2 43189  97.5786 273.9691 0012691  20.1911 339.9817 15.09073811378080
Ten-Koh
1 43677U 18084G   25009.02441769  .00003754  00000-0  31457-3 0  9999
2 43677  98.0828 175.3660 0014713  53.9440 306.3143 14.98989381337523
PO-101
1 43678U 18084H   25009.26654610  .00002746  00000-0  24359-3 0  9990
2 43678  98.0874 179.8552 0009688  71.9902 288.2373 14.97052401337731
QO-100
1 43700U 18090A   25009.25400095  .00000155  00000-0  00000+0 0  9993
2 43700   0.0162 356.5809 0002768 331.0893 258.5833  1.00271004 22666
MinXSS-2
1 43758U 18099A   25009.14546659  .00016681  00000-0  80905-3 0  9997
2 43758  97.5268  75.2962 0013188 331.6763  28.3753 15.18502538333934
AO-95
1 43770U 18099N   25009.14513055  .00010857  00000-0  62283-3 0  9993
2 43770  97.5179  69.1876 0012452  23.7971 336.3833 15.12669559333626
RANGE-A
1 43773U 18099R   25009.10806228  .00005898  00000-0  40169-3 0  9997
2 43773  97.4736  61.9506 0011870 358.5965   1.5228 15.06592338333398
MOVE-II
1 43780U 18099Y   25009.12137428  .00047160  00000-0  13063-2 0  9996
2 43780  97.4918  78.5369 0004251 342.2581  17.8514 15.36813859334305
SNUSat 2
1 43782U 18099AA  25009.13828761  .00008858  00000-0  53641-3 0  9994
2 43782  97.4865  67.0810 0012051 322.9650  37.0747 15.10772242333607
SnugLite
1 43784U 18099AC  25009.13967842  .00011000  00000-0  62720-3 0  9991
2 43784  97.4679  66.4196 0003200 345.9334  14.1807 15.12944876333702
ITASat 1
1 43786U 18099AE  25009.13420593  .00007557  00000-0  47251-3 0  9994
2 43786  97.4829  66.9749 0015800  14.4627 345.7051 15.09610320333582
EAGLET 1
1 43790U 18099AJ  25009.13026586  .00005186  00000-0  35197-3 0  9995
2 43790  97.5019  67.3181 0012502 355.8376   4.2745 15.06772073333244
ESEO
1 43792U 18099AL  25009.18863628  .00002360  00000-0  18649-3 0  9992
2 43792  97.4764  62.5485 0007175 317.0520  43.0144 15.01577068333096
CSIM
1 43793U 18099AM  25009.16946398  .00049177  00000-0  13735-2 0  9994
2 43793  97.5082  80.4861 0007827 310.0972  49.9585 15.36524398334154
JO-97
1 43803U 18099AX  25009.12855401  .00013236  00000-0  70543-3 0  9994
2 43803  97.4923  69.9499 0007555 320.5420  39.5262 15.15289614333792
Suomi 100
1 43804U 18099AY  25009.13686132  .00010706  00000-0  59775-3 0  9992
2 43804  97.4990  69.5913 0012690 318.7618  41.2654 15.13643938333750
ISAT
1 43879U 18111D   25009.25697144  .00019855  00000-0  89093-3 0  9997
2 43879  97.6059 281.2048 0011701  19.5857 340.5826 15.21170242330626
UWE-4
1 43880U 18111E   25009.25208402  .00016075  00000-0  77211-3 0  9994
2 43880  97.5993 280.5402 0015269  26.2131 333.9873 15.18824274330606
Sparrow
1 43881U 18111F   25009.27391194  .00020004  00000-0  87680-3 0  9996
2 43881  97.6176 283.5982 0010608  55.2613 304.9620 15.21981944330707
Prox-1
1 44339U 19036A   25009.20553615  .00013982  00000-0  20069-2 0  9997
2 44339  23.9994 332.3854 0007999 153.8734 206.2166 14.74741083295608
SONATE
1 44400U 19038Q   25009.25928660  .00052786  00000-0  81770-3 0  9991
2 44400  97.7122  21.2284 0013661  85.9312 274.3502 15.53766772305848
